Montana Department of Transportation

Main Content

Accidents and Incidents Report

Hourly Weather Roundup

ASUS45 KTFX 010919
RWRMT 
MONTANA HOURLY WEATHER ROUNDUP
NATIONAL WEATHER SERVICE GREAT FALLS MT
319 AM MDT FRI AUG 1 2014

NOTE: "FAIR" INDICATES FEW OR NO CLOUDS BELOW 12000 FEET WITH NO
SIGNIFICANT WEATHER AND/OR OBSTRUCTIONS TO VISIBILITY.

* THESE STATIONS ARE NOT UNDER NWS QUALITY CONTROL. THEY DO NOT
   REPORT WEATHER SUCH AS PRECIPITATION OR FOG.

MTZ001.007-043-011000-
WEST OF THE DIVIDE
CITY           SKY/WX    TMP DP  RH WIND       PRES   REMARKS
KALISPELL      CLEAR     54  48  80 W5        30.08R 
MISSOULA       PTCLDY    63  41  45 CALM      30.13R 
BUTTE          MOCLDY    55  39  55 CALM      30.27S 
MULLAN PASS    MOCLDY    68  30  24 NW5       30.29S 
* ESSEX        N/A      N/A N/A N/A N/A        N/A   
* LINCOLN      N/A       47  46  96 W1         N/A   
* LOOKOUT PASS N/A       64  38  38 SE1        N/A   
* POLSON       N/A       66  38  36 SE2        N/A   
* RONAN APT    PTCLDY    59  52  78 N/A        N/A   
* SEELEY LAKE  N/A       50  42  74 NE1G6      N/A   
* THOMP F APT  PTCLDY    55  41  59 N6G11      N/A   
--------------------------------

MTZ008-052.055-011000-
SOUTHWEST MONTANA
CITY           SKY/WX    TMP DP  RH WIND       PRES   REMARKS
BOZEMAN        PTCLDY    54  43  67 E3        30.20S 
DILLON         PTCLDY    55  41  59 S8        30.24R 
W YELLOWSTONE  CLEAR     41  39  93 CALM      30.34S 
* THREE FORKS  PTCLDY    55  54  96 N/A        N/A   
* BOULDER HILL N/A       63  36  37 S6         N/A   
* MONIDA PASS  N/A       50  43  77 SW6        N/A   
* RAYNOLDS PAS N/A       49  23  36 SE4        N/A   
* WHITEHALL    N/A       59  39  48 N7         N/A   
* WISE RIVER   N/A       60  43  54 W5G11      N/A   
--------------------------------

MTZ009.010-012-014-046-048-049-054-011000-
EAST SLOPES AND CENTRAL MONTANA
CITY           SKY/WX    TMP DP  RH WIND       PRES   REMARKS
CUT BANK       CLEAR     61  54  78 NW9       30.17R 
GREAT FALLS    PTCLDY    54  45  72 SW8       30.13R 
HELENA         MOCLDY    63  39  41 CALM      30.16S 
MALMSTROM AFB  PTCLDY    59  43  56 SW6       30.14R 
* CONRAD       CLEAR     61  59  93 NW5        N/A   
* DEARBORN     N/A       57  42  57 S3         N/A   
* EAST GLACIER N/A       58  48  70 SW4        N/A   
* MONARCH      N/A       55  39  55 SE2        N/A   
* PENDROY      N/A       61  47  60 NW5        N/A   
* ROGERS PASS  N/A       61  37  41 N/A        N/A   
* SAINT MARY   N/A       52  50  93 SE3        N/A   
* SWEET GRASS  N/A       66  56  70 N3         N/A   
--------------------------------

MTZ011-013-016-021-035-040-045-047-050-051-011000-
NORTH CENTRAL MONTANA
CITY           SKY/WX    TMP DP  RH WIND       PRES   REMARKS
HAVRE          CLEAR     61  48  62 E6        30.08R 
LEWISTOWN      PTCLDY    57  45  64 SE6       30.16S 
* FORT BENTON  PTCLDY    64  43  47 SW6       30.10R 
* CHESTER      N/A       61  49  65 N4         N/A   
* DENTON       N/A       57  45  64 SE4        N/A   
* GEYSER       N/A       58  42  55 SW6        N/A   
* JUDITH GAP   N/A       58  43  58 N/A        N/A   
* LOMA         N/A       65  44  47 W4         N/A   
--------------------------------

MTZ017.020-022.027-061-062-011000-
NORTHEAST MONTANA
CITY           SKY/WX    TMP DP  RH WIND       PRES   REMARKS
GLASGOW        CLOUDY    70  55  59 N10       30.01R 
GLENDIVE       MOCLDY    68  52  57 E5        30.03F 
JORDAN         PTCLDY    64  39  40 NW7       30.03R 
SIDNEY         PTCLDY    63  55  75 CALM      30.02F 
WOLF POINT     CLOUDY    70  57  64 VRB6      30.00S 
* BEAVER HILL  N/A       61  50  67 SE5        N/A   
* CIRCLE       N/A       71  49  46 N/A        N/A   
* LINDSAY DVD  N/A       66  45  47 E4         N/A   
* NAVAJO       N/A       61  58  90 E4         N/A   
--------------------------------

MTZ028.042-056.058-011000-
SOUTHCENTRAL AND SOUTHEAST MONTANA
CITY           SKY/WX    TMP DP  RH WIND       PRES   REMARKS
BAKER          MOCLDY    55  48  77 SE6       30.06F 
BILLINGS       MOCLDY70  41  35 SW13      30.11S 
LIVINGSTON     MOCLDY    61  41  48 NW9       30.20S 
MILES CITY     PTCLDY    70  45  41 S5        30.01S 
* LAUREL APT   PTCLDY    64  43  47 N/A        N/A   
* ROUNDUP APT  MOCLDY    72  37  28 N/A        N/A   
* ALZADA       N/A       63  46  54 E2         N/A   
* HYSHAM       N/A       70  39  32 N/A        N/A   
* LAME DEER    N/A       75  36  24 NW5        N/A   
* REED POINT   N/A       61  45  56 W4         N/A   
* ROSCOE HILL  N/A       65  38  37 S8         N/A   
--------------------------------

REGIONAL REPORTS...DAKOTAS
CITY           SKY/WX    TMP DP  RH WIND       PRES   REMARKS
WILLISTON      CLEAR     66  57  73 CALM      30.03F 
DICKINSON      CLEAR     57  54  90 SE8       30.05S 
CROSBY         N/A       57  57 100 E3        30.07S 
TIOGA          CLEAR     54  54 100 E6        30.11S 
WATFORD CITY   CLEAR     59  55  87 E3        30.02F 
BISMARCK       FAIR      63  55  75 NE7       30.07R 
GRAND FORKS    MOCLDY    63  61  93 CALM      30.02S 
FARGO          CLEAR     63  59  87 W3        30.02R 
BUFFALO SD     MOCLDY    63  46  54 NE5       30.01S 
RAPID CITY     CLEAR     57  52  83 E3        30.11S 
--------------------------------

REGIONAL REPORTS...WYOMING/IDAHO/WASHINGTON
CITY           SKY/WX    TMP DP  RH WIND       PRES   REMARKS
GILLETTE       CLEAR     64  43  47 S14       30.14F 
SHERIDAN       CLEAR     57  43  60 SW7       30.11R 
CODY           MOCLDY    64  43  47 SW3       30.21S 
YELLOWSTONE LA PTCLDY    41  37  86 CALM      30.43S 
SALMON         CLOUDY    63  48  58 CALM      30.17S 
MULLAN PASS    MOCLDY    68  30  24 NW5       30.29S 
SAND POINT     PTCLDY    54  48  80 CALM      30.04R 
SPOKANE        CLOUDY    72  34  25 S8        30.03R 
--------------------------------

REGIONAL REPORTS...ALBERTA
CITY           SKY/WX    TMP DP  RH WIND       PRES   REMARKS
CALGARY        MOCLDY    59  48  67 NW5       30.21S 
LETHBRIDGE     MOCLDY    61  57  87 SW12      30.15R 
EDMONTON       MOCLDY    59  54  84 W6        30.16R 
WATERTON GATE  N/A       52  50  93 W3         N/A   
CARDSTON       N/A       61  57  87 SW7        N/A   
--------------------------------

REGIONAL REPORTS...SASKATCHEWAN
CITY           SKY/WX    TMP DP  RH WIND       PRES   REMARKS
SWIFT CURRENT  CLEAR     63  52  68 SE7       30.05F 
REGINA         MOCLDY    63  57  81 SE6       30.09S 
VAL MARIE      N/A       59  52  78 NE6        N/A   
ASSINIBOIA     N/A       63  57  81 N10        N/A   
CORONACH       N/A       68  57  68 N9         N/A   

--------------------------------